EJU9FD LPPT-LPMA

Flight info

Callsign EJU9FD
Flight time 1h 40m
Altitude 33000
Route ULVOT/N0457F340 DCT GANSU/N0411F230 UN975 RAKUN
Aircraft A21N/M-SDE2E3FGHIRWXY/LB1

Departure

Time 2026-05-07 19:18
Airport Lisbon Humberto Delgado Airport (LPPT)

Arrival

Time 2026-05-07 20:59
Airport Cristiano Ronaldo International Airport (LPMA)
Time Latitude Longitude Altitude Speed Heading
2026-05-07 18:44 38.76787 -9.13895 352 ft 0 kts 257°
2026-05-07 19:07 38.76788 -9.13887 359 ft 2 kts 258°
2026-05-07 19:08 38.76794 -9.13863 359 ft 3 kts 244°
2026-05-07 19:08 38.76804 -9.13842 359 ft 3 kts 223°
2026-05-07 19:08 38.76820 -9.13829 352 ft 3 kts 192°
2026-05-07 19:08 38.76834 -9.13828 361 ft 1 kts 168°
2026-05-07 19:09 38.76835 -9.13828 360 ft 1 kts 168°
2026-05-07 19:12 38.76833 -9.13828 361 ft 1 kts 168°
2026-05-07 19:13 38.76813 -9.13822 358 ft 5 kts 168°
2026-05-07 19:13 38.76770 -9.13811 356 ft 8 kts 170°
2026-05-07 19:13 38.76705 -9.13797 352 ft 11 kts 167°
2026-05-07 19:13 38.76629 -9.13792 358 ft 12 kts 226°
2026-05-07 19:14 38.76587 -9.13881 352 ft 13 kts 261°
2026-05-07 19:14 38.76564 -9.14001 354 ft 15 kts 229°
2026-05-07 19:14 38.76501 -9.14109 355 ft 16 kts 251°
2026-05-07 19:14 38.76520 -9.14239 353 ft 5 kts 303°
2026-05-07 19:15 38.76526 -9.14268 350 ft 0 kts 293°
2026-05-07 19:17 38.76535 -9.14295 353 ft 6 kts 293°
2026-05-07 19:17 38.76555 -9.14352 347 ft 8 kts 294°
2026-05-07 19:17 38.76598 -9.14403 344 ft 10 kts 348°
2026-05-07 19:17 38.76675 -9.14374 354 ft 19 kts 25°
2026-05-07 19:18 38.77011 -9.14199 349 ft 85 kts 24°
2026-05-07 19:18 38.77752 -9.13812 356 ft 142 kts 22°
2026-05-07 19:18 38.78795 -9.13264 366 ft 181 kts 26°
2026-05-07 19:18 38.79892 -9.12631 1031 ft 173 kts 21°
2026-05-07 19:19 38.80996 -9.11902 1481 ft 185 kts 24°
2026-05-07 19:19 38.82185 -9.11112 1956 ft 199 kts 24°
2026-05-07 19:19 38.83454 -9.10270 2491 ft 212 kts 24°
2026-05-07 19:19 38.84815 -9.09363 2999 ft 232 kts 24°
2026-05-07 19:20 38.86301 -9.08402 3403 ft 252 kts 24°
2026-05-07 19:20 38.87921 -9.07360 3975 ft 265 kts 24°
2026-05-07 19:20 38.89582 -9.06300 4741 ft 271 kts 24°
2026-05-07 19:20 38.91307 -9.05230 5457 ft 278 kts 24°
2026-05-07 19:21 38.93085 -9.04180 6192 ft 285 kts 24°
2026-05-07 19:21 38.94924 -9.03127 6867 ft 292 kts 24°
2026-05-07 19:21 38.96790 -9.02079 7644 ft 294 kts 24°
2026-05-07 19:21 38.98685 -9.01029 8445 ft 297 kts 24°
2026-05-07 19:22 39.00596 -8.99979 9234 ft 300 kts 24°
2026-05-07 19:22 39.02534 -8.98929 10020 ft 304 kts 24°
2026-05-07 19:22 39.04614 -8.98207 10494 ft 320 kts
2026-05-07 19:22 39.06910 -8.98160 10838 ft 338 kts 358°
2026-05-07 19:23 39.09313 -8.98453 11127 ft 357 kts 345°
2026-05-07 19:23 39.11617 -8.99766 11410 ft 371 kts 324°
2026-05-07 19:23 39.13532 -9.02067 11682 ft 383 kts 305°
2026-05-07 19:23 39.14801 -9.05063 11943 ft 392 kts 287°
2026-05-07 19:24 39.15311 -9.08538 12189 ft 399 kts 269°
2026-05-07 19:24 39.14948 -9.12076 12598 ft 398 kts 250°
2026-05-07 19:24 39.13760 -9.15270 13102 ft 396 kts 233°
2026-05-07 19:24 39.11871 -9.17829 13621 ft 394 kts 216°
2026-05-07 19:25 39.09525 -9.19551 14092 ft 394 kts 203°
2026-05-07 19:25 39.07057 -9.21116 14518 ft 397 kts 210°
2026-05-07 19:25 39.04833 -9.23248 15010 ft 401 kts 220°
2026-05-07 19:25 39.02808 -9.25741 15517 ft 404 kts 223°
2026-05-07 19:26 39.00844 -9.28325 15974 ft 406 kts 224°
2026-05-07 19:26 38.98873 -9.30952 16383 ft 408 kts 224°
2026-05-07 19:26 38.96892 -9.33586 16772 ft 410 kts 224°
2026-05-07 19:26 38.94908 -9.36217 17187 ft 411 kts 224°
2026-05-07 19:27 38.92916 -9.38851 17590 ft 413 kts 224°
2026-05-07 19:27 38.90911 -9.41499 18008 ft 414 kts 224°
2026-05-07 19:27 38.88898 -9.44155 18374 ft 416 kts 224°
2026-05-07 19:27 38.86876 -9.46817 18725 ft 418 kts 225°
2026-05-07 19:28 38.84844 -9.49486 19106 ft 419 kts 225°
2026-05-07 19:28 38.82800 -9.52171 19504 ft 420 kts 225°
2026-05-07 19:28 38.80753 -9.54859 19893 ft 421 kts 225°
2026-05-07 19:28 38.78722 -9.57523 20242 ft 423 kts 225°
2026-05-07 19:29 38.76659 -9.60226 20601 ft 425 kts 224°
2026-05-07 19:29 38.74582 -9.62944 21014 ft 428 kts 225°
2026-05-07 19:29 38.72498 -9.65671 21476 ft 430 kts 225°
2026-05-07 19:29 38.70392 -9.68422 21922 ft 433 kts 225°
2026-05-07 19:30 38.68281 -9.71183 22332 ft 435 kts 225°
2026-05-07 19:30 38.66156 -9.73957 22714 ft 437 kts 225°
2026-05-07 19:30 38.64023 -9.76743 23071 ft 440 kts 225°
2026-05-07 19:30 38.61877 -9.79539 23417 ft 442 kts 225°
2026-05-07 19:31 38.59714 -9.82355 23722 ft 444 kts 225°
2026-05-07 19:31 38.57546 -9.85179 24146 ft 442 kts 224°
2026-05-07 19:31 38.55399 -9.87973 24566 ft 439 kts 224°
2026-05-07 19:31 38.53266 -9.90745 24928 ft 437 kts 224°
2026-05-07 19:32 38.51128 -9.93515 25205 ft 436 kts 224°
2026-05-07 19:32 38.48996 -9.96266 25486 ft 436 kts 224°
2026-05-07 19:32 38.46869 -9.99010 25780 ft 435 kts 224°
2026-05-07 19:32 38.44737 -10.01760 26055 ft 434 kts 224°
2026-05-07 19:33 38.42630 -10.04487 26339 ft 433 kts 224°
2026-05-07 19:33 38.40509 -10.07232 26642 ft 432 kts 224°
2026-05-07 19:33 38.38405 -10.09949 26924 ft 431 kts 224°
2026-05-07 19:33 38.36300 -10.12671 27199 ft 430 kts 224°
2026-05-07 19:34 38.34225 -10.15347 27497 ft 429 kts 224°
2026-05-07 19:34 38.32127 -10.18048 27772 ft 428 kts 224°
2026-05-07 19:34 38.30031 -10.20746 28092 ft 427 kts 224°
2026-05-07 19:34 38.27944 -10.23426 28406 ft 425 kts 224°
2026-05-07 19:35 38.25871 -10.26088 28718 ft 423 kts 224°
2026-05-07 19:35 38.23796 -10.28751 29019 ft 421 kts 224°
2026-05-07 19:35 38.21735 -10.31389 29293 ft 420 kts 224°
2026-05-07 19:35 38.19665 -10.34042 29565 ft 420 kts 224°
2026-05-07 19:36 38.17619 -10.36664 29831 ft 419 kts 224°
2026-05-07 19:36 38.15591 -10.39260 30093 ft 418 kts 224°
2026-05-07 19:36 38.13540 -10.41882 30336 ft 416 kts 224°
2026-05-07 19:36 38.11509 -10.44475 30586 ft 415 kts 224°
2026-05-07 19:37 38.09470 -10.47075 30842 ft 413 kts 224°
2026-05-07 19:37 38.07442 -10.49656 31099 ft 411 kts 224°
2026-05-07 19:37 38.05429 -10.52215 31357 ft 409 kts 224°
2026-05-07 19:37 38.03419 -10.54768 31610 ft 407 kts 224°
2026-05-07 19:38 38.01425 -10.57302 31857 ft 406 kts 224°
2026-05-07 19:38 37.99431 -10.59837 32164 ft 403 kts 223°
2026-05-07 19:38 37.97461 -10.62338 32440 ft 400 kts 223°
2026-05-07 19:38 37.95493 -10.64829 32664 ft 398 kts 223°
2026-05-07 19:39 37.93537 -10.67302 32902 ft 396 kts 223°
2026-05-07 19:39 37.91589 -10.69766 32983 ft 395 kts 223°
2026-05-07 19:39 37.87725 -10.74653 32959 ft 395 kts 223°
2026-05-07 19:40 37.83836 -10.79561 32947 ft 395 kts 223°
2026-05-07 19:40 37.79935 -10.84470 32947 ft 395 kts 223°
2026-05-07 19:41 37.76039 -10.89377 32954 ft 395 kts 223°
2026-05-07 19:41 37.72145 -10.94273 32981 ft 395 kts 223°
2026-05-07 19:42 37.68256 -10.99150 32956 ft 394 kts 222°
2026-05-07 19:42 37.64368 -11.04019 32944 ft 393 kts 222°
2026-05-07 19:43 37.60477 -11.08885 32943 ft 393 kts 222°
2026-05-07 19:43 37.56610 -11.13697 32941 ft 393 kts 222°
2026-05-07 19:44 37.52713 -11.18550 32944 ft 393 kts 222°
2026-05-07 19:44 37.48822 -11.23406 32943 ft 393 kts 222°
2026-05-07 19:45 37.44932 -11.28243 32944 ft 393 kts 222°
2026-05-07 19:45 37.41035 -11.33074 32967 ft 393 kts 221°
2026-05-07 19:46 37.37146 -11.37882 32948 ft 391 kts 221°
2026-05-07 19:46 37.33263 -11.42687 32948 ft 392 kts 221°
2026-05-07 19:47 37.29392 -11.47467 32944 ft 392 kts 221°
2026-05-07 19:47 37.25499 -11.52268 32944 ft 392 kts 221°
2026-05-07 19:48 37.21603 -11.57063 32947 ft 392 kts 221°
2026-05-07 19:48 37.17708 -11.61851 32944 ft 392 kts 221°
2026-05-07 19:49 37.13812 -11.66629 32932 ft 392 kts 221°
2026-05-07 19:49 37.09922 -11.71395 32945 ft 390 kts 221°
2026-05-07 19:50 37.06069 -11.76117 32946 ft 390 kts 221°
2026-05-07 19:50 37.02822 -11.80076 32948 ft 389 kts 221°
2026-05-07 19:51 36.98935 -11.84823 32948 ft 390 kts 221°
2026-05-07 19:51 36.95075 -11.89531 32949 ft 390 kts 221°
2026-05-07 19:52 36.91189 -11.94258 32949 ft 389 kts 221°
2026-05-07 19:52 36.87303 -11.98975 32950 ft 389 kts 221°
2026-05-07 19:53 36.83423 -12.03684 32949 ft 389 kts 221°
2026-05-07 19:53 36.79523 -12.08411 32966 ft 391 kts 221°
2026-05-07 19:54 36.75619 -12.13136 32953 ft 391 kts 221°
2026-05-07 19:54 36.71734 -12.17823 32951 ft 391 kts 221°
2026-05-07 19:55 36.67827 -12.22526 32952 ft 391 kts 221°
2026-05-07 19:55 36.63892 -12.27263 32948 ft 390 kts 221°
2026-05-07 19:56 36.60003 -12.31939 32951 ft 391 kts 221°
2026-05-07 19:56 36.56067 -12.36671 32949 ft 390 kts 221°
2026-05-07 19:57 36.52186 -12.41322 32993 ft 391 kts 221°
2026-05-07 19:57 36.48256 -12.46027 32958 ft 391 kts 221°
2026-05-07 19:58 36.44332 -12.50718 32949 ft 391 kts 221°
2026-05-07 19:58 36.40402 -12.55410 32947 ft 391 kts 221°
2026-05-07 19:59 36.36493 -12.60065 32943 ft 391 kts 221°
2026-05-07 19:59 36.32559 -12.64747 32944 ft 391 kts 221°
2026-05-07 20:00 36.28625 -12.69420 32947 ft 392 kts 221°
2026-05-07 20:00 36.24696 -12.74083 32958 ft 391 kts 221°
2026-05-07 20:01 36.20765 -12.78743 32992 ft 389 kts 220°
2026-05-07 20:01 36.16858 -12.83352 32958 ft 388 kts 220°
2026-05-07 20:02 36.12953 -12.87962 32957 ft 388 kts 220°
2026-05-07 20:02 36.09037 -12.92574 32957 ft 388 kts 220°
2026-05-07 20:03 36.05134 -12.97180 32959 ft 388 kts 220°
2026-05-07 20:03 36.01243 -13.01766 32956 ft 389 kts 220°
2026-05-07 20:04 35.97316 -13.06376 32959 ft 389 kts 220°
2026-05-07 20:04 35.93384 -13.10982 32958 ft 389 kts 220°
2026-05-07 20:05 35.89447 -13.15590 32983 ft 392 kts 220°
2026-05-07 20:05 35.85505 -13.20200 32962 ft 393 kts 220°
2026-05-07 20:06 35.81530 -13.24847 32959 ft 394 kts 220°
2026-05-07 20:06 35.77551 -13.29483 32959 ft 394 kts 220°
2026-05-07 20:07 35.73565 -13.34120 32953 ft 395 kts 221°
2026-05-07 20:07 35.69575 -13.38758 32959 ft 394 kts 221°
2026-05-07 20:08 35.65578 -13.43402 32960 ft 395 kts 221°
2026-05-07 20:08 35.61586 -13.48027 32956 ft 395 kts 221°
2026-05-07 20:09 35.57568 -13.52680 32978 ft 401 kts 221°
2026-05-07 20:10 35.51474 -13.59721 32961 ft 402 kts 221°
2026-05-07 20:10 35.47387 -13.64429 32956 ft 403 kts 221°
2026-05-07 20:11 35.43289 -13.69153 32951 ft 403 kts 222°
2026-05-07 20:11 35.39200 -13.73852 32955 ft 403 kts 222°
2026-05-07 20:12 35.35101 -13.78560 32950 ft 404 kts 222°
2026-05-07 20:12 35.30995 -13.83266 32950 ft 404 kts 222°
2026-05-07 20:13 35.26883 -13.87967 32968 ft 408 kts 223°
2026-05-07 20:13 35.22703 -13.92750 32953 ft 411 kts 223°
2026-05-07 20:14 35.18517 -13.97526 32957 ft 411 kts 223°
2026-05-07 20:14 35.14328 -14.02305 32947 ft 411 kts 223°
2026-05-07 20:15 35.10138 -14.07075 32957 ft 412 kts 223°
2026-05-07 20:15 35.05974 -14.11808 32955 ft 412 kts 223°
2026-05-07 20:16 35.01775 -14.16568 32952 ft 412 kts 223°
2026-05-07 20:16 34.97571 -14.21334 32959 ft 412 kts 223°
2026-05-07 20:17 34.93328 -14.26132 32946 ft 418 kts 224°
2026-05-07 20:17 34.89056 -14.30961 32933 ft 419 kts 225°
2026-05-07 20:18 34.84796 -14.35766 32949 ft 419 kts 225°
2026-05-07 20:18 34.80490 -14.40621 32951 ft 419 kts 225°
2026-05-07 20:19 34.76229 -14.45407 32957 ft 419 kts 225°
2026-05-07 20:19 34.71935 -14.50228 32956 ft 419 kts 225°
2026-05-07 20:20 34.67649 -14.55037 32955 ft 420 kts 225°
2026-05-07 20:20 34.63346 -14.59852 32957 ft 423 kts 226°
2026-05-07 20:21 34.59009 -14.64702 32937 ft 422 kts 226°
2026-05-07 20:21 34.54716 -14.69497 32952 ft 422 kts 226°
2026-05-07 20:22 34.50399 -14.74311 32959 ft 422 kts 226°
2026-05-07 20:22 34.46077 -14.79118 32958 ft 422 kts 226°
2026-05-07 20:23 34.41748 -14.83929 32957 ft 422 kts 226°
2026-05-07 20:23 34.37419 -14.88735 32959 ft 422 kts 226°
2026-05-07 20:24 34.33091 -14.93531 32966 ft 422 kts 227°
2026-05-07 20:24 34.28739 -14.98343 32949 ft 422 kts 227°
2026-05-07 20:25 34.24433 -15.03098 32958 ft 421 kts 227°
2026-05-07 20:25 34.20101 -15.07881 32963 ft 421 kts 227°
2026-05-07 20:26 34.15766 -15.12653 32959 ft 421 kts 227°
2026-05-07 20:26 34.11438 -15.17423 32961 ft 421 kts 227°
2026-05-07 20:27 34.07097 -15.22180 32964 ft 421 kts 227°
2026-05-07 20:27 34.02751 -15.26949 32937 ft 421 kts 228°
2026-05-07 20:28 33.98522 -15.31582 32968 ft 420 kts 228°
2026-05-07 20:28 33.95046 -15.35391 32970 ft 420 kts 228°
2026-05-07 20:29 33.90744 -15.40090 32958 ft 420 kts 228°
2026-05-07 20:29 33.86422 -15.44814 32957 ft 419 kts 227°
2026-05-07 20:30 33.82098 -15.49516 32861 ft 413 kts 227°
2026-05-07 20:30 33.79982 -15.51815 32368 ft 408 kts 228°
2026-05-07 20:30 33.77880 -15.54102 31725 ft 407 kts 228°
2026-05-07 20:30 33.75781 -15.56387 31028 ft 408 kts 229°
2026-05-07 20:31 33.73660 -15.58683 30254 ft 410 kts 229°
2026-05-07 20:31 33.71515 -15.61015 28766 ft 422 kts 229°
2026-05-07 20:31 33.69341 -15.63383 27127 ft 431 kts 228°
2026-05-07 20:31 33.67106 -15.65806 25736 ft 433 kts 229°
2026-05-07 20:32 33.64869 -15.68225 24846 ft 434 kts 229°
2026-05-07 20:32 33.62638 -15.70635 24152 ft 429 kts 229°
2026-05-07 20:32 33.60440 -15.73013 23541 ft 425 kts 229°
2026-05-07 20:32 33.58264 -15.75362 22909 ft 421 kts 229°
2026-05-07 20:33 33.56089 -15.77713 22279 ft 417 kts 229°
2026-05-07 20:33 33.53965 -15.80168 21897 ft 432 kts 230°
2026-05-07 20:33 33.51820 -15.82686 21557 ft 430 kts 230°
2026-05-07 20:33 33.49700 -15.85168 21162 ft 422 kts 230°
2026-05-07 20:34 33.48315 -15.86785 20813 ft 417 kts 230°
2026-05-07 20:34 33.46260 -15.89184 20255 ft 410 kts 230°
2026-05-07 20:34 33.44234 -15.91552 19718 ft 403 kts 230°
2026-05-07 20:34 33.41602 -15.94634 18990 ft 396 kts 231°
2026-05-07 20:35 33.40289 -15.96170 18654 ft 392 kts 230°
2026-05-07 20:35 33.38333 -15.98452 18115 ft 388 kts 230°
2026-05-07 20:35 33.36406 -16.00701 17473 ft 386 kts 230°
2026-05-07 20:35 33.34494 -16.02934 16928 ft 383 kts 230°
2026-05-07 20:36 33.32589 -16.05158 16433 ft 382 kts 230°
2026-05-07 20:36 33.30717 -16.07347 15964 ft 381 kts 230°
2026-05-07 20:36 33.28821 -16.09558 15503 ft 379 kts 230°
2026-05-07 20:36 33.26939 -16.11749 15025 ft 378 kts 229°
2026-05-07 20:37 33.25052 -16.13949 14599 ft 377 kts 229°
2026-05-07 20:37 33.23176 -16.16124 14210 ft 376 kts 229°
2026-05-07 20:37 33.21299 -16.18297 13858 ft 375 kts 229°
2026-05-07 20:37 33.19426 -16.20464 13429 ft 373 kts 229°
2026-05-07 20:38 33.17565 -16.22620 12902 ft 371 kts 229°
2026-05-07 20:38 33.15722 -16.24766 12401 ft 369 kts 229°
2026-05-07 20:38 33.13910 -16.26868 11954 ft 362 kts 228°
2026-05-07 20:38 33.12141 -16.28912 11659 ft 349 kts 229°
2026-05-07 20:39 33.10432 -16.30888 11403 ft 332 kts 229°
2026-05-07 20:39 33.08810 -16.32761 11007 ft 317 kts 229°
2026-05-07 20:39 33.07255 -16.34557 10657 ft 303 kts 229°
2026-05-07 20:39 33.05779 -16.36263 10317 ft 290 kts 229°
2026-05-07 20:40 33.04355 -16.37908 10110 ft 279 kts 229°
2026-05-07 20:40 33.02972 -16.39509 9969 ft 277 kts 229°
2026-05-07 20:40 33.01592 -16.41110 9786 ft 276 kts 229°
2026-05-07 20:40 33.00219 -16.42693 9510 ft 273 kts 228°
2026-05-07 20:41 32.98858 -16.44263 9186 ft 272 kts 228°
2026-05-07 20:41 32.97499 -16.45827 8876 ft 270 kts 228°
2026-05-07 20:41 32.96165 -16.47362 8413 ft 272 kts 228°
2026-05-07 20:41 32.94800 -16.48933 7738 ft 272 kts 228°
2026-05-07 20:42 32.93440 -16.50503 7301 ft 270 kts 227°
2026-05-07 20:42 32.92061 -16.51998 6989 ft 266 kts 225°
2026-05-07 20:42 32.90679 -16.53467 6573 ft 266 kts 225°
2026-05-07 20:42 32.89322 -16.54917 6165 ft 265 kts 225°
2026-05-07 20:43 32.87955 -16.56385 5769 ft 264 kts 225°
2026-05-07 20:43 32.86604 -16.57843 5372 ft 262 kts 225°
2026-05-07 20:43 32.85253 -16.59304 4983 ft 261 kts 225°
2026-05-07 20:43 32.83951 -16.60789 4589 ft 259 kts 227°
2026-05-07 20:44 32.82677 -16.62301 4188 ft 258 kts 227°
2026-05-07 20:44 32.81426 -16.63783 3868 ft 251 kts 228°
2026-05-07 20:44 32.80189 -16.65243 3236 ft 253 kts 227°
2026-05-07 20:44 32.78941 -16.66722 2750 ft 255 kts 227°
2026-05-07 20:45 32.77686 -16.68204 2385 ft 252 kts 227°
2026-05-07 20:45 32.76465 -16.69645 2098 ft 242 kts 227°
2026-05-07 20:45 32.75292 -16.71025 1835 ft 232 kts 227°
2026-05-07 20:45 32.74158 -16.72355 1555 ft 230 kts 228°
2026-05-07 20:46 32.72984 -16.73708 948 ft 238 kts 225°
2026-05-07 20:46 32.71766 -16.75063 1412 ft 245 kts 226°
2026-05-07 20:46 32.70501 -16.76470 2428 ft 256 kts 226°
2026-05-07 20:46 32.69190 -16.77969 3374 ft 266 kts 227°
2026-05-07 20:47 32.67870 -16.79528 4219 ft 279 kts 227°
2026-05-07 20:47 32.66494 -16.81160 3830 ft 281 kts 227°
2026-05-07 20:47 32.65043 -16.82609 3956 ft 259 kts 211°
2026-05-07 20:47 32.63419 -16.83106 4490 ft 235 kts 183°
2026-05-07 20:48 32.61815 -16.82627 4845 ft 244 kts 155°
2026-05-07 20:48 32.60512 -16.81301 4978 ft 252 kts 131°
2026-05-07 20:48 32.59704 -16.79458 5001 ft 255 kts 103°
2026-05-07 20:48 32.59676 -16.77366 5000 ft 257 kts 74°
2026-05-07 20:49 32.60435 -16.75475 5001 ft 252 kts 51°
2026-05-07 20:49 32.61524 -16.73857 5005 ft 252 kts 47°
2026-05-07 20:49 32.62655 -16.72269 5000 ft 252 kts 46°
2026-05-07 20:49 32.63785 -16.70679 4998 ft 251 kts 46°
2026-05-07 20:50 32.64916 -16.69098 4995 ft 251 kts 46°
2026-05-07 20:50 32.66048 -16.67525 4992 ft 251 kts 46°
2026-05-07 20:50 32.67152 -16.65983 4847 ft 238 kts 46°
2026-05-07 20:50 32.68194 -16.64524 4478 ft 231 kts 46°
2026-05-07 20:51 32.69212 -16.63098 4291 ft 216 kts 46°
2026-05-07 20:51 32.70148 -16.61802 4113 ft 206 kts 44°
2026-05-07 20:51 32.71096 -16.60541 3767 ft 204 kts 44°
2026-05-07 20:51 32.72050 -16.59292 3405 ft 204 kts 44°
2026-05-07 20:52 32.72998 -16.58039 3061 ft 203 kts 44°
2026-05-07 20:52 32.74045 -16.56939 2673 ft 198 kts 22°
2026-05-07 20:52 32.75334 -16.56619 2324 ft 186 kts 349°
2026-05-07 20:52 32.76516 -16.57136 2046 ft 178 kts 326°
2026-05-07 20:53 32.77554 -16.57806 1965 ft 160 kts 325°
2026-05-07 20:53 32.78489 -16.58487 1962 ft 157 kts 321°
2026-05-07 20:53 32.79181 -16.59424 1969 ft 149 kts 289°
2026-05-07 20:53 32.79550 -16.60565 1996 ft 148 kts 286°
2026-05-07 20:54 32.79907 -16.61707 1997 ft 147 kts 286°
2026-05-07 20:54 32.80036 -16.62864 2034 ft 143 kts 267°
2026-05-07 20:54 32.79985 -16.64050 2040 ft 143 kts 263°
2026-05-07 20:54 32.79519 -16.65093 2007 ft 147 kts 232°
2026-05-07 20:55 32.79092 -16.66083 2006 ft 132 kts 259°
2026-05-07 20:55 32.78782 -16.67077 2000 ft 134 kts 229°
2026-05-07 20:55 32.77970 -16.67651 1950 ft 135 kts 218°
2026-05-07 20:55 32.77271 -16.68381 1933 ft 134 kts 229°
2026-05-07 20:56 32.76644 -16.69181 1954 ft 131 kts 234°
2026-05-07 20:56 32.76102 -16.70033 1842 ft 132 kts 231°
2026-05-07 20:56 32.75395 -16.70766 1560 ft 134 kts 226°
2026-05-07 20:56 32.74709 -16.71504 1384 ft 130 kts 227°
2026-05-07 20:57 32.74100 -16.72276 1268 ft 129 kts 234°
2026-05-07 20:57 32.73461 -16.73043 1024 ft 131 kts 225°
2026-05-07 20:57 32.72800 -16.73739 822 ft 127 kts 231°
2026-05-07 20:57 32.72240 -16.74555 687 ft 127 kts 230°
2026-05-07 20:58 32.71603 -16.75307 510 ft 130 kts 226°
2026-05-07 20:58 32.70955 -16.76070 333 ft 131 kts 226°
2026-05-07 20:58 32.70327 -16.76809 199 ft 125 kts 226°
2026-05-07 20:58 32.69790 -16.77436 182 ft 76 kts 229°
2026-05-07 20:59 32.69589 -16.77676 182 ft 28 kts 225°
2026-05-07 20:59 32.69444 -16.77843 182 ft 30 kts 227°
2026-05-07 20:59 32.69343 -16.77956 182 ft 10 kts 186°
2026-05-07 20:59 32.69292 -16.77907 182 ft 12 kts 100°
2026-05-07 21:00 32.69324 -16.77817 182 ft 14 kts 48°
2026-05-07 21:00 32.69391 -16.77731 182 ft 15 kts 44°
2026-05-07 21:00 32.69437 -16.77678 182 ft 4 kts 50°
2026-05-07 21:00 32.69458 -16.77647 182 ft 6 kts 49°
2026-05-07 21:01 32.69483 -16.77600 182 ft 8 kts 79°
2026-05-07 21:01 32.69467 -16.77575 182 ft 0 kts 167°
2026-05-07 21:01 32.69452 -16.77567 182 ft 6 kts 146°
2026-05-07 21:01 32.69443 -16.77560 182 ft 0 kts 145°
2026-05-07 21:02 32.69439 -16.77556 182 ft 2 kts 143°
2026-05-07 21:02 32.69438 -16.77555 182 ft 0 kts 143°